COSMOS 1275 DEB

Satellite information

Favourite Embed

Satellite Type and Status

DEBRISIN ORBIT

Key statistics

Satellite COSMOS 1275 DEB at a glance.

Uptime

16104

Days in orbit

Revolutions

≈ 14.2

Per day

Orbit

LEO

Low Earth Orbit

Inclination

82.9

Latest

Satellite identification and parameters

Extended collection of information and parameters for COSMOS 1275 DEB.

Object identification

Identified? True

Debris? True

Object name: COSMOS 1275 DEB

International designator: 1981-053DR

Object number (NORAD): 12772

Object ID (CCSDS): 12772

Country: COMMONWEALTH OF INDEPENDENT STATES (CIS)

Current information (Y/N): Y

RCS size: SMALL

Orbital parameters

Period: 101.561 minutes

Inclination: 82.924 deg

SMA: 7210.7 km

Apoapsis: 860.056 km

Periapsis: 805.074 km

RAAN: 117.0685 deg

Eccentricy: 0.0038125

Argument of periapsis: 206.5189 deg

Mean anomaly: 153.4041 deg

Mean motion: 14.17870616 rev/day

Mean motion (dot): 0.00002051 rev/day2

B* drag term: 0.00098941 1/REarth

Two-line elements (TLE)

Creation date: July 5, 2025, 10:26 p.m.

Reference frame: TEME

Reference center: EARTH

Epoch: July 5, 2025, 8:41 p.m. UTC

TLE line 0: 0 COSMOS 1275 DEB

TLE line 1: 1 12772U 81053DR 25186.86239320 .00002051 00000-0 98941-3 0 9993

TLE line 2: 2 12772 82.9240 117.0685 0038125 206.5189 153.4041 14.17870616229916

Live tracking on map

Real-time ground track for satellite COSMOS 1275 DEB.

In-orbit conjunctions

A list of the most updated potential collisions computed for object COSMOS 1275 DEB.

Target Orbit TCA Probability of collision Miss distance Type
THOR BURNER 2 R/B SSO 2025-04-28 21:53:30 0.0003649065 723.0 (m) ROCKET BODY
FENGYUN 1C DEB SSO 2025-03-09 07:45:18 0.0002201728 85.0 (m) DEBRIS

Associated space launch

Navigation satellite providing location information for the Tsiklon-B navigation system

COSMOS 1275 DEB was lifted into orbit during the mission ‘Kosmos-3M | Parus 27’, on board a Kosmos-3M space rocket.

The launch took place on June 4, 1981, 3:41 p.m. from 132/2.

For more information about the launch, click the button.

Launch to space Kosmos-3M | Parus 27
Kosmos-3M | Parus 27

Agency: N/A

Status: Launch Successful

Launch date: June 4, 1981, 3:41 p.m. UTC

Rocket: Kosmos-3M

Launch pad: 132/2

Location: Plesetsk Cosmodrome, Russian Federation

...

Latest news about this satellite

There are no fresh news available about this satellite. Check back as we update our databases every day.


Newsletter sign-up

Weekly statistics, charts and insights to help you stay on top of the space industry.